Theta_e
299 299 298 298 298 299 298 298 297 297 297 296 296 297 296 297 297 297 296 296 295 294 294 294 294 293 295 294 293 293 292 291 291 291 291 291 290 289 291 289 289 290
299 299 299 299 298 298 298 298 298 298 298 297 297 296 297 297 297 297 297 297 296 295 295 295 295 294 293 293 293 292 292 291 291 293 291 290 290 290 290 290 289 289
299 299 299 298 298 297 297 298 298 298 298 298 298 298 298 297 297 297 298 297 297 296 296 295 295 295 294 293 293 293 292 291 291 291 291 291 291 290 290 290 290 290
299 299 299 299 298 298 297 297 297 298 298 297 297 298 298 299 297 297 297 297 297 296 296 296 295 295 294 294 293 293 292 292 292 291 291 291 291 291 291 290 290 290
299 299 299 299 299 299 298 297 297 297 298 298 298 297 297 297 297 297 297 296 296 296 296 296 296 295 295 294 293 293 293 292 292 292 291 291 291 291 292 291 290 290
299 299 299 299 299 298 298 298 298 298 298 298 298 298 297 297 297 297 297 296 296 296 295 295 295 295 295 294 294 293 293 292 292 292 292 291 291 292 293 292 291 290
298 298 298 299 298 299 298 298 298 297 298 298 296 297 298 297 297 297 297 296 296 296 295 295 295 295 295 294 294 293 293 293 292 292 291 292 291 291 292 292 291 291
298 298 299 298 298 298 298 298 298 298 298 296 296 297 297 297 297 297 297 297 296 296 296 296 295 295 295 294 294 293 293 294 293 292 292 292 291 291 291 292 292 291
298 298 298 297 297 298 297 298 297 297 296 296 297 297 296 297 297 297 297 296 296 296 296 296 296 295 295 295 294 294 293 293 293 293 292 292 291 291 292 292 291 291
297 297 297 297 297 297 297 297 297 297 296 297 297 297 297 297 296 297 296 296 296 296 296 296 296 295 295 295 295 294 294 294 293 293 293 293 292 292 292 292 291 291
296 296 296 296 296 297 297 297 297 297 297 297 297 297 297 297 296 296 296 296 296 296 296 296 296 296 295 295 295 295 295 294 294 293 293 293 293 293 293 292 292 292
295 295 295 296 296 296 296 297 297 297 297 297 296 297 297 296 296 296 296 296 296 296 296 296 296 295 295 295 295 295 295 294 294 294 294 293 293 293 293 293 293 293
294 295 295 295 296 296 296 296 296 296 296 296 296 296 296 296 295 296 296 296 297 297 296 296 296 295 295 295 295 295 294 294 294 294 294 294 294 294 294 293 293 293
294 294 295 295 296 296 296 296 296 295 295 295 294 295 295 295 295 296 296 296 296 296 296 296 295 295 295 295 295 295 294 294 294 294 293 293 293 293 293 293 294 294
294 294 295 295 294 295 294 294 294 294 294 294 293 294 295 295 295 295 295 295 295 295 295 295 295 296 296 296 295 295 294 294 294 294 293 293 293 293 293 293 293 293
294 293 294 293 293 293 293 293 293 293 293 292 293 293 293 294 294 294 294 294 294 294 294 295 295 296 294 294 294 295 294 295 294 294 293 293 293 292 293 293 293 293
292 293 293 292 293 292 292 292 293 292 292 291 292 292 292 292 292 292 292 292 292 293 293 294 295 295 294 295 295 295 294 294 293 293 293 293 293 292 292 292 293 293
292 292 292 292 292 292 292 292 291 291 291 291 291 291 292 291 290 291 291 291 292 292 292 293 294 293 294 295 295 295 294 294 293 293 293 292 292 292 292 292 292 293
292 292 292 292 292 292 292 291 291 291 291 291 291 291 290 290 291 291 291 291 291 291 291 292 292 293 294 294 294 294 295 294 293 293 292 292 292 292 292 292 292 292
291 291 291 291 291 291 291 291 291 290 291 291 290 290 290 290 290 290 290 290 290 290 291 291 291 292 293 294 294 294 294 294 293 292 292 292 291 291 292 291 291 291
291 291 291 291 291 290 290 290 290 290 290 291 290 290 290 290 290 290 290 290 290 290 290 291 292 292 293 293 293 294 294 293 292 292 291 291 291 291 291 291 291 291
290 290 290 290 290 290 289 289 290 290 289 290 289 290 290 290 290 289 289 290 290 290 290 290 291 292 292 292 293 293 294 292 291 290 290 290 290 290 291 291 291 291
290 289 289 289 289 289 288 289 289 289 289 289 288 289 289 289 289 289 290 290 289 289 289 289 290 291 291 292 292 293 292 291 290 290 289 289 289 290 290 290 290 290
289 289 288 288 288 288 288 289 289 289 289 289 288 288 288 289 289 289 289 289 288 288 288 288 289 289 290 291 291 292 291 290 290 289 288 288 288 289 289 289 290 289
288 288 288 288 287 288 288 288 288 288 288 289 288 288 288 289 288 288 288 289 289 288 287 288 288 288 290 291 291 292 291 290 289 288 287 287 287 288 288 288 288 288
287 287 287 287 287 288 288 288 288 288 288 288 288 288 288 288 288 288 288 288 288 288 289 289 288 289 289 290 291 291 292 290 289 288 287 287 287 287 287 288 288 288
Wind_Speed
7 6 7 7 7 7 7 7 7 7 7 6 7 7 7 7 5 5 8 7 7 7 7 7 7 7 7 7 6 6 6 7 7 6 7 7 7 6 7 7 6 6
8 7 7 6 7 7 7 7 7 7 8 7 7 7 7 6 6 6 7 8 7 8 7 7 7 7 7 7 7 7 7 7 8 5 7 8 8 7 8 8 8 7
6 6 7 7 8 8 8 7 7 7 7 7 6 6 6 5 6 5 6 7 7 8 8 8 7 7 8 7 7 7 8 8 9 7 8 9 8 8 9 8 8 8
7 7 7 8 8 8 7 6 6 6 6 6 7 7 6 5 5 6 6 6 7 7 8 7 9 8 8 8 8 8 8 9 9 7 8 8 8 9 9 8 8 8
6 6 6 7 7 7 6 6 7 7 7 8 7 6 7 7 6 6 6 6 6 7 7 8 8 8 8 8 8 9 8 9 8 8 8 9 9 8 9 8 9 10
5 5 6 7 7 7 7 8 8 7 7 6 9 6 7 7 7 7 7 8 7 8 8 8 8 8 8 8 8 9 9 8 9 8 10 11 10 8 7 8 10 11
7 6 7 7 6 7 8 9 8 8 8 8 5 7 7 7 7 8 8 8 8 8 9 9 8 9 8 8 8 10 9 10 9 9 10 10 9 10 9 9 10 11
6 6 7 6 7 8 8 9 8 8 8 5 7 9 6 8 8 8 7 8 8 9 9 9 9 10 9 8 9 10 10 8 9 10 11 11 9 11 10 10 10 11
6 6 6 6 7 7 7 8 8 7 5 6 8 8 6 7 8 8 8 7 8 9 9 9 9 9 9 9 10 11 11 10 9 10 11 12 11 12 11 10 10 11
7 7 7 7 7 7 7 7 7 7 6 7 8 7 8 7 7 8 7 8 8 9 9 9 9 9 9 9 11 11 11 12 11 11 11 12 12 12 11 10 12 12
7 7 7 7 7 7 8 8 7 7 6 7 7 7 7 7 7 6 7 8 9 10 10 9 10 10 10 11 10 10 11 12 11 11 11 12 12 13 12 12 12 13
7 7 7 7 7 7 7 7 7 6 7 6 5 7 7 6 7 7 7 9 9 10 9 10 9 10 11 11 11 11 11 11 11 11 11 12 12 12 12 12 13 14
7 7 7 7 7 7 7 6 6 6 6 7 6 6 6 7 7 7 7 8 9 9 9 10 10 10 11 11 11 11 11 11 12 11 12 11 11 12 12 12 13 13
7 6 6 7 6 6 6 7 7 7 7 6 5 6 7 7 8 8 8 7 8 8 9 8 9 10 11 11 11 11 11 11 11 11 12 12 12 12 12 13 13 14
7 6 6 6 6 6 7 7 7 6 6 6 6 7 7 7 7 8 8 9 8 8 8 8 9 10 10 10 10 10 10 11 11 12 12 12 12 12 13 13 13 13
8 7 7 7 7 7 7 7 7 7 7 6 7 7 7 7 7 8 8 8 9 9 8 8 9 9 13 17 14 10 9 9 9 10 11 11 12 13 13 13 14 13
7 7 8 8 7 7 7 7 8 8 7 7 8 7 8 8 8 8 8 8 8 8 9 9 9 10 16 16 16 17 13 11 11 11 10 11 11 13 13 14 13 14
8 8 8 9 8 9 9 8 8 8 8 8 8 9 9 7 8 8 8 8 8 7 8 9 10 13 17 17 17 17 15 12 10 10 11 11 12 13 13 13 14 14
8 9 9 10 10 10 10 9 9 9 9 9 10 9 8 8 9 9 9 8 8 8 9 10 10 14 17 17 17 17 17 15 10 10 11 12 13 14 14 14 13 13
9 10 10 10 10 10 10 11 11 11 10 9 8 9 8 9 8 9 9 8 8 8 9 9 10 13 16 17 17 17 17 15 11 12 12 13 14 14 13 14 14 13
11 11 11 11 11 11 11 11 11 11 11 10 10 10 10 11 11 11 11 10 10 9 9 10 10 15 17 18 17 17 18 15 11 11 11 12 12 13 14 14 14 13
12 12 12 12 12 11 11 12 12 12 12 11 10 10 9 9 9 8 11 11 11 10 10 11 10 15 17 17 18 17 18 11 10 11 11 11 12 12 13 12 12 13
13 13 13 12 12 12 13 13 13 13 12 10 11 10 10 11 10 10 9 10 11 10 11 12 11 13 17 18 18 20 16 11 10 10 10 11 12 12 11 11 11 12
13 13 13 13 12 13 13 12 12 11 12 11 11 12 12 12 12 11 10 9 11 11 10 12 12 13 17 18 18 18 16 12 11 10 12 11 12 12 10 11 12 17
11 11 12 12 12 12 11 12 12 12 11 11 11 11 12 11 11 11 12 11 10 11 13 13 12 12 14 16 17 17 15 10 10 9 11 12 11 12 10 9 11 11
11 11 11 11 12 11 11 11 11 11 11 12 12 10 11 11 11 11 12 11 10 11 11 11 12 12 11 16 17 18 18 13 10 10 12 13 12 11 12 11 9 10
Wind_Direction
222 219 223 224 227 223 228 230 232 228 228 223 218 226 221 228 225 192 196 203 207 207 211 213 213 213 216 215 214 216 221 225 230 221 224 227 236 232 238 244 245 231
226 223 226 228 235 231 229 222 229 224 233 228 227 227 230 224 226 205 195 201 206 211 210 212 213 213 213 211 212 214 222 224 233 220 223 223 226 223 233 232 235 239
228 227 225 227 230 233 232 231 227 231 232 235 237 233 235 224 229 221 210 205 208 214 216 216 217 218 216 216 212 217 221 222 229 223 223 225 221 219 224 221 225 226
233 226 227 233 234 238 239 238 241 239 240 245 238 236 231 235 227 227 226 217 218 223 222 218 219 220 218 219 215 221 223 225 226 217 225 229 225 221 224 216 221 224
236 238 236 237 238 240 239 237 240 236 232 234 243 239 236 237 230 230 226 228 223 230 227 228 225 222 217 220 215 225 227 232 228 219 224 230 228 218 226 217 224 227
258 245 243 237 236 234 238 236 239 235 237 241 236 235 235 231 230 226 226 229 228 228 232 232 232 229 220 220 217 223 225 230 232 222 228 232 235 223 224 219 225 230
261 256 252 247 247 234 236 241 242 237 237 237 244 240 231 235 231 230 227 226 227 226 228 230 229 232 224 223 223 228 227 228 231 225 230 237 233 236 228 226 227 232
271 262 255 249 243 241 240 244 243 240 239 242 237 245 227 236 234 233 231 229 229 232 230 230 229 229 225 218 225 230 234 227 231 228 233 238 231 238 233 231 230 233
286 281 274 266 256 253 249 250 252 254 248 242 247 251 243 236 241 238 236 231 234 236 235 236 233 233 228 222 226 227 231 232 227 228 232 236 235 236 235 232 235 235
292 286 285 281 275 271 266 263 260 257 245 242 247 249 250 246 240 245 240 236 237 240 236 238 239 239 237 230 230 228 230 234 230 227 230 234 237 240 237 231 233 237
295 293 289 286 280 280 277 278 275 269 261 251 253 255 252 253 253 241 243 239 240 241 242 240 240 240 241 240 236 233 233 235 234 231 231 233 235 237 237 233 235 236
302 301 297 292 291 290 285 283 282 277 271 265 251 257 260 252 250 249 239 243 243 246 246 246 245 242 242 243 241 239 237 238 239 237 237 237 237 237 235 233 235 237
306 303 299 298 297 292 294 298 295 289 283 277 270 261 263 264 257 254 249 244 248 248 247 247 248 246 246 244 243 240 239 240 241 241 241 240 241 241 238 236 236 238
307 301 301 298 298 298 297 295 294 293 286 281 282 278 271 265 264 261 260 252 253 252 252 250 250 252 251 248 245 244 243 242 241 243 244 243 244 243 241 241 239 239
313 311 306 306 305 304 303 299 296 293 291 288 284 277 271 265 265 266 270 267 264 260 261 255 253 253 252 251 249 249 245 246 244 243 243 247 246 246 244 244 244 241
317 315 314 314 316 310 305 304 303 301 298 296 290 281 277 275 275 271 266 266 269 268 263 261 259 258 257 253 249 250 251 249 249 246 246 247 250 251 251 247 246 244
323 318 320 320 315 314 311 312 309 308 307 302 298 293 288 286 281 280 277 272 269 268 270 267 265 265 264 263 261 255 254 258 255 257 252 252 251 252 254 255 254 249
327 324 324 320 322 319 317 313 313 313 312 307 305 303 299 297 295 285 284 283 279 275 271 272 272 271 270 271 269 267 261 259 259 259 257 257 257 256 256 255 257 257
338 339 334 332 331 328 325 326 324 321 318 318 313 306 305 306 300 299 294 290 284 282 279 276 277 277 279 278 276 273 270 265 263 256 257 256 256 257 257 257 257 258
345 341 337 333 332 331 331 330 329 326 323 319 315 315 314 310 307 303 300 296 291 286 284 282 279 285 284 283 282 279 275 271 265 262 259 258 256 255 257 257 256 259
347 342 338 336 335 334 332 329 328 327 328 328 326 323 322 320 319 317 310 305 301 295 292 290 288 290 290 289 289 285 281 275 270 267 265 263 260 258 259 260 262 261
345 342 340 338 335 336 335 332 332 331 328 327 325 319 313 309 306 305 303 305 303 303 301 295 293 292 293 294 294 293 290 284 276 270 269 267 265 263 261 261 261 259
343 340 338 337 337 337 336 333 332 331 328 328 322 319 317 316 311 308 307 305 306 305 302 298 297 297 297 296 296 295 296 289 283 278 272 270 270 267 265 263 260 257
339 338 336 335 336 335 333 330 329 327 327 327 325 322 321 318 315 313 311 308 305 303 300 299 299 298 297 296 295 293 290 289 286 284 280 278 277 272 267 266 260 255
333 333 332 332 331 331 330 330 330 328 322 322 321 319 315 315 314 313 313 311 309 303 302 298 297 300 299 297 298 299 299 294 290 286 287 284 282 283 275 262 268 259
331 329 329 329 328 327 331 329 324 322 324 322 319 317 314 314 312 311 309 308 308 306 306 305 304 303 303 302 303 304 305 304 299 297 295 294 291 288 292 287 271 271